sat.trackr.live / text

‹ back to catalog

KUIPER-00123

NORAD 65952 · 2025-228F

PAYLOAD ACTIVE UNKNOWN

§ Identity

Operator
Country
US
Launch date
2025-10-14
Launch site
AFETR
Launch vehicle
Mass (kg)
RCS (m²)

External: N2YO · Heavens-Above · Gunter

§ Orbital elements

Epoch: 2026-05-24T15:55:47.541216Z

Period
97.30 min
Inclination
51.8999°
Eccentricity
0.0000948
Mean motion
14.79927228 rev/d
Perigee alt
628.9 km
Apogee alt
630.2 km
Semi-major
7,007.7 km
B*
4.5221e-4
RAAN
27.1229°
Arg perigee
90.1349°
Mean anomaly
269.9722°
Rev number
3,444

§ Raw data

KUIPER-001231 65952U 25228F   26144.66374469  .00003227  00000+0  45221-3 0  99982 65952  51.8999  27.1229 0000948  90.1349 269.9722 14.79927228 34443

JSON: /api/v1/satellites/65952 · /tle

For live sub-satellite position, see the globe view (requires WebGL).

§ Visibility from observer

Set your observer location to see the next 7 days of passes ≥ 10°. The values pass through the URL so the page stays shareable.

No JS? Fill the form by hand. The geolocation button needs JavaScript.